TimeACDT,TemperatureF,Dew PointF,Humidity,Sea Level PressureIn,VisibilityMPH,Wind Direction,Wind SpeedMPH,Gust SpeedMPH,PrecipitationIn,Events,Conditions,WindDirDegrees,DateUTC
12:00 AM,60,50,62,,,South,13.8,,,,,170,2013-11-02 13:30:00
12:30 AM,60,50,61,,,SSW,8.1,,,,,200,2013-11-02 14:00:00
2:30 AM,58,47,57,,,South,9.2,,,,,190,2013-11-02 16:00:00
3:30 AM,57,45,54,,,South,10.4,,,,,180,2013-11-02 17:00:00
5:30 AM,56,45,56,,,South,9.2,,,,,180,2013-11-02 19:00:00
6:00 AM,55,44,57,,,South,10.4,,,,,180,2013-11-02 19:30:00
6:30 AM,55,43,54,,,South,9.2,,,,,180,2013-11-02 20:00:00
8:30 AM,60,42,41,,,South,13.8,,,,,170,2013-11-02 22:00:00
9:00 AM,60,41,38,,,South,13.8,,,,,180,2013-11-02 22:30:00
9:30 AM,60,41,39,,,South,11.5,,,,,180,2013-11-02 23:00:00
11:30 AM,66,41,29,,,South,11.5,,,,,190,2013-11-03 01:00:00
12:00 PM,65,41,29,,,SSW,12.7,,,,,200,2013-11-03 01:30:00
12:30 PM,66,39,26,,,South,12.7,,,,,180,2013-11-03 02:00:00
2:30 PM,67,39,24,,,South,12.7,,,,,170,2013-11-03 04:00:00
3:00 PM,68,40,24,,,SSW,11.5,,,,,200,2013-11-03 04:30:00
3:30 PM,64,40,30,,,South,13.8,,,,,190,2013-11-03 05:00:00
5:30 PM,63,37,26,,,South,16.1,,,,,170,2013-11-03 07:00:00
6:00 PM,61,38,31,,,South,15.0,,,,,170,2013-11-03 07:30:00
6:30 PM,59,37,32,,,South,16.1,,,,,170,2013-11-03 08:00:00
8:30 PM,55,38,42,,,South,9.2,,,,,170,2013-11-03 10:00:00
9:30 PM,54,39,47,,,SSE,11.5,,,,,160,2013-11-03 11:00:00
11:30 PM,53,39,47,,,SSE,6.9,,,,,150,2013-11-03 13:00:00